Вернуться в каталог

STARLINK-2645

АктивенСвязьVLEO
NORAD 48444·PAYLOAD·🇺🇸 United States

Запущен May 9, 2021 с Cape Canaveral Space Force Station

Loading…

Ближайшие Пролёты (ближайшие 24 часа)

TLE

СвежийSource: CelesTrak SupGP

Эпоха: Sep 15, 2026, 01:09 UTC

1 48444C 21040S   26258.04840278 -.00014873  00000+0 -47828-3 0  2581
2 48444  53.1591  16.9443 0001235  90.9745 325.8974 15.31710032    14

Отслеживайте STARLINK-2645 в реальном времени с AllMySat

Download on the App Store